Tracking 20628 objects as of 5-Apr-2020
HD Live streaming from Space Station
objects crossing your sky now

SL-14 DEB

Track SL-14 DEB now!
10-day predictions


NORAD ID: 39970
Int'l Code: 1987-068CW
Perigee: 867.5 km
Apogee: 878.4 km
Inclination: 82.5 °
Period: 102.3 minutes
Semi major axis: 7243 km
RCS: 0.0124 m2 (small)
Launch date: August 18, 1987
Source: Commonwealth of Independent States (former USSR) (CIS)
Launch site: PLESETSK MISSILE AND SPACE COMPLEX (PKMTR)

Note: This is SATELLITE DEBRIS
aabbcc
Your satellite tracking list
Your tracking list is empty




NASA's NSSDC Master Catalog

Two Line Element Set (TLE):
1 39970U 87068CW  20095.36483236 +.00000630 +00000-0 +36040-3 0  9993
2 39970 082.5373 131.8073 0007570 139.2046 220.9695 14.08124428299563
Source of the keplerian elements: AFSPC